Vertical_Velocity
-1 -1 -0 0 -0 -1 -2 -1 -1 -2 -2 -2 -2 -2 -2 -1 -0 1 2 1 0 0 -0 -0 -0 -0 -1 -1 -1 -1 -1 -2 -3 -3 -3 -3 -4 -4 0 2 3 3 3 2 2 1 0 0 -1 -3 -5 -4 -3 -2 -1 -1 -1 -1 0 6 7 6 6 3 1 1 1 3 8 13 15 16 16 14 12 14 16 18 16 8 4 3 5 5 5 5
-0 0 0 -0 -1 -2 -2 -2 -2 -3 -3 -3 -3 -3 -2 -1 -0 1 1 1 0 0 -0 -0 0 -0 -1 -1 -1 -1 -1 -1 -2 -2 -2 -2 -4 -4 -1 1 2 2 2 2 1 0 -1 -2 -3 -5 -7 -5 -4 -3 -2 -1 -0 1 2 6 8 8 7 4 2 1 -1 6 14 20 22 20 17 15 13 13 12 9 6 5 5 6 6 3 1 0
1 0 -1 -1 -1 -2 -3 -3 -3 -3 -4 -4 -3 -2 -1 -1 -0 0 1 1 1 1 0 1 1 0 -0 -0 -0 -0 0 -1 -1 -1 -0 -0 -2 -3 -3 -1 -0 -0 0 1 1 -0 -2 -3 -5 -6 -6 -4 -3 -1 -0 1 2 2 1 4 7 9 7 5 1 -1 -1 14 23 25 21 14 8 4 2 2 3 4 6 6 6 4 2 -2 -5 -5
0 -1 -1 -2 -2 -3 -4 -4 -3 -3 -3 -3 -2 -1 -0 -1 -1 0 1 1 1 1 1 1 1 1 0 0 -0 0 1 1 -0 -1 1 2 1 -1 -3 -2 -2 -3 -4 -3 -3 -2 -3 -4 -4 -3 -2 -1 -0 1 3 3 2 0 -1 2 5 7 7 6 3 3 13 27 29 21 9 1 -4 -5 -2 2 5 7 8 5 2 0 -1 -4 -6 -6
-1 -1 -1 -2 -3 -4 -4 -3 -3 -2 -2 -2 -1 -1 -1 -1 -0 1 3 2 2 2 2 1 1 1 1 0 1 2 3 2 1 -0 1 4 4 2 -1 -1 -1 -1 -4 -7 -7 -7 -6 -4 -3 -1 -1 0 2 4 5 3 0 -1 -1 1 5 9 14 13 15 20 29 26 18 7 -1 -4 -3 -1 3 7 9 8 5 1 -1 -2 -2 -4 -5 -4
-1 -1 -1 -2 -3 -4 -3 -2 -1 -1 -1 -2 -1 -1 -1 -1 0 2 2 1 1 1 2 2 1 1 1 1 2 3 4 3 1 0 0 4 6 6 3 3 3 3 2 -2 -5 -7 -6 -4 -2 0 2 5 8 9 7 2 1 2 4 6 11 16 20 15 18 22 21 13 6 2 -0 -0 1 4 7 10 11 9 5 2 0 -1 -2 -3 -2 -2
-1 -1 -1 -2 -3 -3 -3 -1 -1 -1 -2 -1 -1 -0 -0 -0 0 1 1 1 1 2 3 3 2 1 1 1 2 3 3 2 1 -1 -1 3 6 8 7 4 4 4 5 4 2 0 0 2 3 5 7 9 9 8 5 5 5 5 7 11 16 18 14 8 11 14 10 5 3 2 3 3 5 7 9 11 12 10 7 4 2 -0 -1 -0 -0 -1
-1 -1 -1 -2 -3 -3 -2 -1 -1 -1 -2 -1 -0 -0 -0 -1 -0 1 3 2 2 2 3 2 1 0 -1 -1 -0 -0 -1 -1 -3 -3 -3 0 4 8 9 6 4 3 3 3 3 4 6 7 9 10 10 10 9 7 7 7 6 5 5 10 15 18 14 9 9 10 8 5 4 5 7 8 9 9 11 11 11 9 6 4 2 0 0 1 1 0
-2 -1 -1 -2 -3 -4 -3 -2 -2 -2 -2 -2 -1 -1 -1 -2 -1 1 3 1 1 1 2 0 -1 -0 0 -1 -2 -2 -2 -3 -3 -4 -4 -1 3 7 9 7 6 5 4 4 5 6 8 11 13 15 14 11 10 10 10 8 5 3 3 7 13 18 19 13 11 11 10 8 8 9 11 11 11 10 10 9 8 6 3 1 0 -0 0 -0 -1 -1
-2 -3 -3 -2 -3 -4 -4 -3 -2 -2 -3 -2 -1 0 0 -2 -1 -0 -0 -0 0 2 2 -1 -1 -0 2 -0 -2 -3 -2 -1 -0 -0 -1 1 3 6 6 6 7 8 6 4 6 8 11 14 18 20 19 15 14 14 15 12 8 3 0 3 10 18 21 15 11 11 11 11 12 13 14 13 12 11 10 9 6 4 2 0 -1 -1 -2 -4 -5 -5
-3 -3 -4 -3 -3 -3 -4 -3 -2 -1 -1 -0 1 2 1 -2 -3 -3 -3 -1 0 1 3 2 0 -1 0 0 -1 -2 -2 -0 1 2 2 3 4 5 3 4 6 8 4 2 4 7 11 13 16 17 18 19 20 20 21 21 16 7 -3 -2 8 20 25 18 15 13 15 16 17 17 17 16 14 13 11 9 6 4 1 -0 -2 -3 -4 -5 -5 -4
-3 -3 -3 -3 -2 -2 -3 -2 0 1 1 -0 -2 -2 -3 -3 -3 -4 -3 -1 -1 -0 3 5 4 1 -1 -0 -0 -1 -2 -1 1 3 3 2 2 2 2 2 3 3 1 -1 -1 2 7 8 9 10 10 14 18 21 22 22 17 8 -5 -5 3 13 16 14 14 15 16 17 17 17 15 11 8 6 4 3 1 -0 -2 -2 -3 -2 -2 -2 -1 -1
-2 -2 -1 -1 -2 -2 -3 -2 -1 -1 -2 -4 -5 -5 -3 -1 -2 -3 -2 -2 -2 -1 2 6 6 5 2 -0 -2 -2 -2 1 4 4 -1 -3 -2 -0 2 -0 -0 0 -1 -4 -3 0 5 4 4 4 6 9 12 14 16 17 12 4 -4 -0 5 12 17 18 18 16 14 10 5 1 -3 -4 -5 -6 -6 -5 -3 -2 -1 0 1 2 2 2 2 1
-2 -1 -1 -2 -2 -3 -3 -4 -4 -5 -4 -5 -4 -3 0 1 1 -1 -3 -3 -2 -1 1 4 6 6 3 0 -2 -3 -3 3 4 2 -6 -7 -5 -1 2 -0 0 -0 -3 -6 -2 4 8 3 2 3 4 4 5 7 8 7 3 -1 -4 -2 2 4 5 5 4 0 -6 -10 -12 -13 -13 -13 -13 -12 -10 -8 -5 -2 1 2 3 4 3 3 2 1
-2 -1 -2 -3 -3 -3 -3 -4 -4 -4 -2 -2 -0 1 2 3 2 -0 -4 -4 -3 -1 -1 2 4 4 2 2 -0 -3 -4 1 1 -1 -6 -6 -4 -1 0 -0 0 -0 -4 -7 -2 4 6 2 1 2 2 2 3 3 3 4 3 -1 -6 -10 -11 -11 -10 -12 -13 -14 -14 -15 -15 -15 -14 -12 -11 -9 -8 -6 -4 -2 -1 -0 0 0 0 -0 -1 -1
-2 -2 -2 -2 -2 -2 -2 -3 -3 -2 -1 1 2 2 2 1 1 -0 -4 -2 -1 -2 -4 -3 -2 -1 3 5 2 -3 -6 -2 -0 -1 -6 -3 -1 -0 0 -2 -2 -2 -4 -6 -3 2 4 3 3 4 4 5 5 4 2 1 -0 -2 -5 -5 -5 -5 -6 -6 -8 -10 -11 -12 -12 -11 -11 -9 -9 -8 -7 -5 -3 -2 -0 -0 -0 -1 -1 -2 -2 -2
-2 -2 -2 -2 -2 -2 -1 -2 -2 -2 -1 0 1 1 -0 0 0 0 -1 0 -0 -2 -4 -7 -9 -7 1 4 3 -1 -8 -4 1 2 -6 -3 -0 2 1 -3 -4 -4 -4 -6 -3 1 4 5 5 6 8 6 4 1 -0 -0 -1 -1 -0 -0 -1 -2 -3 -5 -6 -7 -7 -7 -6 -5 -5 -6 -7 -8 -7 -7 -6 -5 -3 -1 -1 -1 -1 -2 -2 -2
-1 -1 -1 -2 -2 -1 -1 -2 -2 -2 -1 -1 0 1 0 1 0 0 0 0 -2 -3 -3 -7 -9 -8 -5 0 5 4 -7 -5 1 3 -6 -5 -1 3 2 -1 -3 -4 -5 -5 -3 -0 2 5 8 11 15 10 5 2 1 0 -0 -1 -1 -1 -1 -2 -3 -4 -4 -3 -2 -2 -1 -1 -2 -3 -3 -3 -3 -4 -4 -5 -5 -4 -3 -2 -1 -1 -1 -2
-1 -1 -1 -2 -1 -1 -1 -1 -1 -2 -2 -1 -0 0 0 1 1 -0 -1 -2 -3 -4 -5 -6 -6 -6 -7 -1 5 6 -4 -3 1 2 -7 -6 -1 3 2 0 -2 -4 -7 -5 -3 -1 0 4 9 15 18 17 15 11 6 0 -4 -5 -4 -2 -1 -1 -2 -2 -2 -2 -2 -1 -1 -0 1 2 2 2 2 1 -1 -2 -3 -3 -3 -3 -2 -2 -1 -1
-1 -1 -1 -1 -1 -1 -1 -1 -2 -2 -3 -2 -0 0 0 1 0 -1 -2 -3 -3 -2 -4 -7 -6 -4 -5 -1 4 6 1 -1 -1 -2 -6 -5 -2 1 1 0 -2 -5 -7 -4 -2 -1 -1 1 5 9 12 13 13 13 11 7 3 -0 -3 -3 -4 -4 -5 -5 -5 -4 -4 -3 -2 -1 -0 0 1 1 1 0 0 -0 -1 -1 -1 -2 -2 -2 -1 -1
-2 -1 -1 -1 -1 -2 -2 -1 -1 -1 -2 -1 -1 0 1 1 -0 -1 -1 -2 -1 -1 -4 -8 -6 -3 -3 -2 2 5 4 -1 -4 -4 -5 -6 -3 0 1 2 -0 -3 -6 -2 0 1 -0 -2 -1 3 8 8 8 8 8 8 7 5 2 0 -2 -4 -5 -4 -4 -3 -3 -2 -2 -2 -2 -2 -2 -1 -1 -1 -1 -0 0 1 1 1 0 0 1 1
-3 -2 -1 -1 -1 -2 -2 -1 -1 -1 0 -1 -1 -1 0 -0 -1 -1 0 -1 -1 -2 -5 -6 -4 -1 -1 -2 2 5 5 -1 -4 -5 -7 -10 -5 1 2 4 2 -2 -5 -1 2 3 2 -2 -3 -1 5 6 5 4 3 4 4 5 5 5 4 3 2 1 -0 -1 -1 -1 -0 0 0 0 0 0 0 0 1 1 1 1 2 1 1 1 2 2
-2 -2 -0 -1 -1 -1 -1 -1 -1 -0 1 -0 -1 -2 -1 -1 -1 -1 0 -1 -2 -3 -5 -4 -1 1 0 -0 2 4 3 0 -1 -3 -13 -14 -6 2 3 5 1 -3 -4 -0 3 4 3 -1 -3 -3 0 3 3 3 2 2 2 2 2 2 3 3 4 3 3 2 1 1 1 1 2 2 1 1 1 1 1 1 1 1 1 1 1 1 1 1
-1 -1 -1 -1 -1 -1 -1 -1 -1 0 1 0 -1 -1 -1 -2 -2 -1 -1 -1 -2 -2 -3 -1 -0 0 1 1 1 2 2 2 1 -3 -14 -15 -8 1 4 3 -1 -4 -4 0 3 4 3 1 -0 -1 -2 -1 0 1 1 1 1 1 1 1 1 1 1 1 2 2 2 1 1 1 2 2 1 1 1 0 1 1 1 1 1 1 2 1 1 1
-1 -1 -1 -1 -1 -1 -1 -1 -1 -0 0 0 -0 -1 -1 -1 -1 -1 -1 -1 -1 -1 1 1 -1 -2 1 0 -1 -1 2 3 2 -2 -12 -13 -8 -1 2 0 -3 -5 -3 0 2 3 1 1 1 1 -1 -2 -1 -1 0 1 1 1 1 0 0 0 0 0 1 1 1 1 1 1 1 1 1 1 1 1 1 1 1 1 1 1 1 1 0 -1
-1 -1 -1 -1 -1 -1 -1 -1 -1 -1 -0 0 1 0 -0 -1 -1 -1 -1 -1 -0 2 4 -1 -4 -4 1 -2 -3 -2 2 3 2 -1 -7 -10 -7 -3 1 -0 -3 -5 -2 1 2 2 -1 -1 -0 0 -0 -1 -1 -1 0 0 1 1 1 1 1 1 1 1 2 2 2 2 2 2 2 2 1 1 1 1 0 -0 -0 -0 -1 -1 -1 -1 -1 -2
-0 -0 -0 -1 -1 -1 -1 -1 -1 -1 -0 0 1 1 0 0 0 -0 -1 -1 1 2 2 -5 -6 -3 -1 -4 -4 -1 2 2 1 -1 -2 -5 -6 -5 -0 -1 -2 -3 -2 0 2 2 -0 -1 -1 -1 -1 -0 0 0 0 0 0 0 0 1 1 1 1 1 2 2 2 2 2 2 1 1 0 0 -0 -1 -1 -1 -1 -1 -1 -1 -1 -1 -1 -1
-0 -0 -0 -0 -0 -0 -1 -1 -1 -1 -0 0 0 1 1 3 2 0 -2 -1 1 2 0 -5 -6 -4 -4 -5 -3 -0 1 0 0 0 0 -2 -4 -4 -0 -0 -1 -2 -4 -1 2 4 0 -1 -1 -1 -1 0 1 1 1 1 1 0 -0 0 0 0 0 0 0 0 0 0 0 0 -0 -0 -1 -1 -1 -1 -1 -1 -1 -1 -1 -1 -1 -1 -1 -1
0 0 0 0 -0 -0 -1 -1 -1 -1 -1 -0 0 2 4 6 3 -1 -2 1 2 1 -2 -4 -4 -5 -6 -4 -2 -1 -1 -1 -0 1 -0 -2 -2 -2 0 0 0 -1 -6 -2 1 3 -1 -1 -1 -1 -0 1 1 1 2 2 1 1 -0 -0 -0 -1 -0 -0 -0 -0 -0 -0 -0 -0 -0 -0 -1 -1 -1 -0 -0 -0 -0 -0 -0 -0 -1 -1 -1 -1
0 0 0 -0 -0 -1 -1 -1 -1 -1 -1 0 1 3 6 5 2 -1 -1 2 2 1 -2 -3 -4 -4 -5 -3 -2 -2 -3 -2 -0 1 -1 -2 -2 -1 0 1 1 -0 -5 -4 -2 -1 -2 -1 0 0 1 1 1 1 1 1 1 1 1 0 -0 -1 -0 -0 0 0 0 0 0 0 0 -0 -0 -0 -0 0 0 1 1 0 0 0 -0 -0 -1 -1
-0 0 -0 -0 -0 -0 -0 -0 -0 -0 0 1 1 2 3 3 2 1 1 2 2 1 -1 -2 -2 -2 -2 -3 -4 -5 -3 -1 0 1 -1 -2 -1 -1 -1 0 2 2 -1 -6 -6 -4 -3 -0 1 2 2 2 1 1 1 1 1 1 1 1 0 -0 -0 0 0 0 0 0 0 0 0 -0 -0 -0 -0 -0 0 0 0 0 0 -0 -0 -0 -0 -0
-0 0 -0 -0 -0 -0 0 0 0 1 1 1 1 1 1 1 2 3 3 3 2 1 -0 -1 -1 0 1 -3 -6 -6 -3 -1 1 1 -1 -1 -1 -0 -1 -0 1 2 1 -4 -6 -7 -6 -2 1 2 2 1 0 0 0 0 0 1 1 1 0 -1 -1 -0 0 0 0 0 0 0 -0 -0 -0 -0 -0 -1 -1 -1 -1 -1 -1 -1 -1 -1 -1 -1
0 0 0 0 0 1 1 1 1 1 1 1 0 0 0 1 2 3 3 3 3 2 1 0 -0 -1 -0 -3 -5 -5 -3 -1 1 1 -1 -1 -1 -1 0 0 -0 -0 0 -1 -3 -5 -7 -5 -2 -0 0 0 -0 -0 -0 -0 -0 0 1 0 -0 -1 -1 -0 -0 -0 -0 -0 -0 -0 -1 -1 -1 -1 -1 -1 -1 -1 -1 -1 -1 -1 -1 -1 -1 -1
0 0 0 1 1 1 1 1 1 1 0 0 0 0 0 1 2 2 2 3 3 2 2 1 -0 -1 -1 -3 -4 -4 -2 -1 -0 1 0 -0 -1 -2 -1 -0 -1 -1 -1 -1 -2 -3 -4 -4 -3 -3 -1 -1 -0 -1 -1 -1 -1 -0 0 -0 -1 -1 -1 -1 -1 -1 -1 -1 -1 -1 -1 -1 -1 -1 -1 -1 -1 -1 -1 -1 -1 -1 -1 -1 -1 -1
-0 0 0 1 1 1 1 1 1 1 0 -0 -0 -0 0 1 1 2 2 2 2 2 1 0 -0 -0 -0 -2 -3 -3 -3 -2 -1 -0 0 0 -0 -1 -1 -1 -1 -1 -1 -1 -2 -2 -3 -2 -2 -3 -3 -2 -1 -1 -1 -1 -1 -0 0 0 -0 -1 -1 -1 -1 -1 -1 -1 -1 -1 -1 -1 -1 -1 -1 -1 -1 -1 -1 -1 -0 -0 -0 -1 -1 -1
-0 -0 0 0 1 1 1 1 1 1 0 0 0 -0 -0 0 1 1 1 2 2 2 1 0 0 -0 0 -0 -2 -3 -3 -2 -1 -1 -0 1 1 1 -1 -1 -1 0 0 -0 -1 -2 -3 -2 -2 -2 -2 -2 -2 -2 -1 -1 -1 0 1 0 -0 -1 -1 -1 -1 -1 -1 -0 -0 -1 -1 -1 -1 -1 -1 -1 -1 -1 -0 -0 -0 -0 -0 -0 -1 -1
-0 -0 -0 -0 0 0 0 0 0 0 0 0 0 0 0 0 0 0 1 1 1 1 1 1 0 -0 -0 -0 -1 -2 -2 -1 -1 -1 -0 1 2 2 -0 -1 -1 0 0 0 -0 -1 -2 -3 -2 -1 -0 -2 -3 -3 -2 -1 -0 0 0 0 -0 -0 -1 -1 -1 -1 -0 0 -0 -0 -0 -0 -0 -1 -1 -1 -1 -0 -0 -0 -0 -0 -0 -0 -0 -1
-0 -0 -1 -1 -0 -0 -0 -0 -0 0 0 0 0 0 0 0 0 0 0 1 1 1 1 0 -0 -1 -1 -1 -1 -1 -1 -1 -1 -1 -0 1 2 2 1 -0 -0 0 0 -0 -0 -0 -1 -1 -1 -1 -1 -1 -2 -2 -1 -1 0 0 0 0 0 -0 -1 -1 -1 -0 0 0 -0 -0 -0 -0 -0 -0 -1 -1 -1 -0 -0 0 0 -0 -0 -0 -0 -0
0 -0 -1 -1 -0 -0 -0 -1 -0 -0 -0 -0 0 0 0 0 0 1 0 0 0 0 0 -0 -0 -1 -1 -1 -1 -1 -1 -1 -0 -0 0 0 1 1 1 1 0 0 -0 -0 -0 0 1 1 -0 -1 -2 -2 -2 -1 -0 0 0 0 -0 0 0 0 -0 -0 -0 -0 -0 -0 -0 -0 -1 -1 -1 -1 -0 -0 -0 -0 -0 -0 -0 -0 -1 -1 -1 -1
0 0 -1 -1 -1 -1 -1 -1 -1 -1 -1 -0 -0 -0 -0 0 0 0 1 1 0 -0 -1 -1 -1 -1 -1 -1 -1 -1 -1 -1 -1 -0 -0 0 0 1 1 1 1 0 -0 -1 -1 -0 1 1 -0 -1 -2 -2 -2 -1 -0 -0 -0 -0 -0 0 0 -0 -0 -0 -0 -0 -0 -0 -0 -0 -1 -1 -1 -1 -0 0 0 -1 -1 -1 -0 -0 -0 -1 -1 -1
1 0 -1 -0 -0 -1 -1 -1 -1 -1 -1 -1 -1 -1 -0 -0 -0 0 0 0 0 -0 -1 -1 -1 -1 -1 -1 -1 -1 -1 -1 -1 -0 -0 -0 0 1 1 1 0 -0 -0 -0 -0 -0 1 0 -1 -1 -1 -1 -1 -1 -1 -1 -1 -1 0 0 -0 -1 -1 -0 -0 -0 -0 -0 -0 -0 -0 -0 -0 -1 -0 0 -0 -1 -1 -1 -0 -0 0 -0 -1 -1
1 0 -0 -0 -0 -0 -1 -1 -1 -1 -0 -1 -1 -1 -1 -0 0 0 0 0 -0 -1 -1 -1 -1 -1 -1 -2 -2 -1 -1 -1 -1 -1 -1 -0 0 1 1 0 -0 -0 0 0 0 0 0 -0 -1 -1 -1 -1 -1 -1 -1 -1 -1 -1 -0 -0 -1 -1 -1 -0 -0 -0 -0 -0 -0 -0 -0 0 -0 -0 0 0 -0 -1 -0 0 0 0 1 0 -0 -0
1 0 0 0 0 -0 -0 -0 -0 -0 -0 -0 -0 -0 -0 -0 -0 0 1 0 -0 -1 -1 -1 -1 -0 -1 -2 -2 -2 -1 -1 -1 -1 -1 -1 -0 0 0 0 -0 -0 1 1 1 -0 -0 -0 -0 -1 -1 -1 -1 -1 -1 -1 -1 -1 -1 -1 -1 -1 -1 -1 -1 -0 -0 -0 -0 -0 -0 -0 -0 0 0 0 -0 -0 -0 0 1 1 0 -0 -0 -0
1 0 0 -0 -0 -0 -0 -1 -1 -1 -1 -1 -0 -0 -0 -0 -0 -0 0 0 -0 -1 -1 -1 -1 -0 0 -1 -2 -2 -2 -1 -1 -1 -1 -1 -1 -1 -0 -0 -0 -0 0 1 0 -0 -0 -0 -1 -1 -1 -1 -0 -0 -1 -1 -0 -0 -0 -0 -0 -0 -1 -1 -1 -0 -0 -0 -0 -0 -0 -1 -1 -1 -0 0 -0 -0 -0 0 0 0 -0 -1 -1 -0
1 0 0 -0 -0 -1 -1 -1 -1 -1 -1 -0 -0 -0 -0 -1 -1 -0 0 0 -0 -1 -1 -1 -1 0 -0 -1 -2 -2 -2 -1 -1 -1 -1 -1 -1 -1 -1 -1 -0 -0 0 0 -0 -0 -0 -1 -1 -1 -1 -1 -1 -1 -1 -1 -0 -0 -0 -0 -0 0 -0 -0 -0 -0 -0 -0 -0 -0 -1 -1 -1 -1 -0 -0 -0 -0 -0 -0 0 -0 -1 -1 -1 -1
1 0 0 0 -0 -1 -1 -1 -1 -1 0 0 0 -0 -0 -0 -0 -0 0 0 -0 -1 -1 -1 -0 0 -1 -2 -2 -2 -1 -1 -1 -1 -1 -1 -1 -1 -1 -1 -1 -0 -0 -1 -1 -1 -0 -1 -1 -1 -1 -1 -1 -1 -1 -1 -1 -1 -1 -0 -0 0 -0 -0 0 0 0 0 -0 -0 -1 -1 -1 -1 -0 -0 -0 -0 -0 -0 -0 -0 -1 -1 -1 -1
1 0 0 -0 -1 -1 -1 -1 -1 -0 0 0 0 0 -0 -0 -0 0 0 0 -0 -1 -1 -1 -0 -0 -1 -2 -2 -2 -1 -1 -1 -1 -1 -1 -1 -1 -1 -1 -1 -1 -1 -1 -1 -1 -1 -1 -1 -1 -1 -1 -1 -1 -1 -1 -1 -1 -1 -1 -0 -0 -0 0 0 0 0 0 0 -0 -0 -0 -0 -0 -0 -0 -0 -0 -0 -0 -0 -1 -1 -1 -1 -1
0 0 0 0 -0 -1 -1 -1 -1 -1 0 0 -0 -0 -0 -1 -0 -0 0 -0 -1 -1 -1 -1 -0 -0 -2 -2 -2 -2 -1 -1 -1 -1 -1 -1 -1 -1 -1 -1 -1 -1 -1 -1 -1 -1 -1 -1 -1 -1 -1 -1 -0 -1 -2 -1 -1 -1 -1 -1 -0 -0 -0 -0 0 0 0 0 0 -0 -0 -0 -0 -1 -1 -1 -1 -1 -1 -1 -1 -1 -1 -1 -1 -1
0 0 0 0 0 -0 -1 -1 -1 -1 -0 -0 -1 -1 -1 -1 -1 -1 -0 -1 -1 -1 -1 -1 -1 -1 -2 -2 -2 -1 -1 -1 -1 -1 -1 -1 -1 -1 -1 -1 -1 -0 -0 -0 -1 -1 -1 -1 -1 -1 -1 -1 -0 -1 -1 -1 -1 -1 -1 -1 -0 -0 -0 -0 -0 0 0 -0 -0 -0 -0 -0 -0 -1 -1 -1 -1 -1 -1 -1 -1 -1 -1 -1 -1 -0
0 0 1 0 0 -0 -1 -1 -1 -1 -1 -0 -1 -1 -1 -1 -1 -1 -1 -1 -1 -1 -1 -1 -1 -1 -1 -2 -2 -2 -2 -1 -1 -1 -1 -1 -1 -1 -1 -1 -1 -0 -0 -0 -0 -1 -1 -1 -1 -1 -1 -1 -1 -1 -1 -1 -1 -1 -1 -1 -0 -0 -0 -0 -0 -0 -0 -0 -0 -0 -0 -1 -1 -1 -1 -2 -2 -2 -1 -1 -0 -0 -1 -1 -0 -0
0 0 0 0 0 -0 -0 -1 -1 -1 -1 -1 -1 -1 -1 -1 -1 -1 -1 -1 -1 -1 -1 -1 -1 -1 -1 -1 -2 -2 -2 -1 -1 -1 -1 -1 -1 -1 -1 -1 -0 -0 -0 -0 -0 -0 -0 -1 -1 -1 -1 -1 -1 -1 -1 -1 -1 -1 -1 -0 -0 -0 0 -0 -0 0 -0 -0 -1 -1 -1 -1 -1 -1 -1 -1 -1 -1 -1 -1 -0 -0 -0 -0 -0 -0
Height
1432 1432 1431 1429 1428 1426 1424 1423 1422 1420 1418 1417 1415 1413 1411 1409 1408 1406 1404 1402 1400 1398 1396 1393 1391 1389 1387 1385 1383 1381 1378 1377 1374 1373 1371 1370 1369 1368 1366 1365 1364 1363 1362 1362 1362 1362 1362 1363 1364 1365 1366 1367 1367 1367 1368 1368 1369 1369 1370 1372 1373 1374 1375 1377 1379 1381 1382 1383 1385 1387 1390 1392 1395 1398 1401 1404 1406 1408 1410 1412 1414 1417 1420 1423 1426 1429
1433 1432 1431 1430 1428 1427 1425 1424 1422 1420 1419 1417 1415 1413 1412 1410 1408 1407 1405 1403 1400 1398 1396 1394 1392 1390 1388 1385 1383 1381 1379 1377 1375 1373 1372 1371 1370 1369 1368 1367 1366 1364 1363 1363 1363 1363 1363 1364 1365 1366 1368 1368 1368 1368 1368 1369 1369 1369 1370 1371 1373 1374 1376 1378 1379 1381 1383 1384 1387 1389 1392 1395 1397 1400 1402 1405 1407 1408 1410 1412 1415 1417 1420 1423 1426 1429
1433 1433 1431 1430 1429 1427 1426 1424 1423 1421 1420 1418 1417 1415 1413 1411 1409 1407 1405 1403 1401 1399 1397 1395 1393 1391 1388 1386 1384 1382 1380 1378 1376 1374 1373 1371 1371 1370 1369 1368 1368 1367 1366 1365 1364 1364 1365 1366 1367 1368 1368 1369 1369 1369 1369 1369 1369 1370 1370 1371 1373 1375 1376 1378 1380 1382 1383 1386 1389 1392 1394 1396 1398 1400 1402 1404 1407 1409 1412 1414 1416 1418 1421 1424 1427 1430
1433 1433 1432 1431 1429 1428 1427 1425 1424 1423 1421 1419 1418 1416 1414 1412 1410 1408 1407 1405 1403 1400 1398 1396 1394 1392 1389 1387 1385 1383 1381 1379 1378 1376 1374 1373 1372 1371 1370 1369 1369 1369 1368 1368 1367 1367 1367 1368 1368 1369 1369 1370 1370 1370 1371 1370 1370 1370 1370 1372 1373 1375 1377 1379 1381 1384 1387 1389 1391 1392 1393 1395 1398 1401 1404 1406 1409 1411 1413 1415 1418 1420 1422 1425 1429 1432
1434 1433 1433 1431 1430 1429 1428 1427 1425 1424 1422 1420 1419 1417 1415 1413 1411 1410 1408 1406 1404 1402 1399 1398 1395 1393 1391 1388 1386 1385 1383 1381 1379 1377 1375 1374 1373 1372 1371 1370 1370 1370 1370 1370 1370 1370 1369 1369 1370 1370 1370 1371 1372 1372 1372 1372 1371 1371 1371 1372 1374 1376 1379 1381 1384 1387 1389 1389 1389 1391 1393 1396 1400 1403 1406 1408 1411 1413 1414 1417 1419 1422 1424 1428 1431 1434
1434 1434 1433 1432 1431 1430 1429 1428 1427 1425 1423 1422 1420 1418 1416 1414 1413 1411 1409 1407 1405 1403 1401 1399 1397 1395 1393 1391 1389 1387 1385 1383 1380 1378 1377 1376 1374 1373 1373 1372 1371 1371 1371 1372 1372 1372 1372 1372 1372 1372 1373 1373 1374 1374 1374 1373 1372 1372 1373 1374 1377 1379 1382 1384 1386 1387 1387 1388 1390 1393 1396 1399 1403 1406 1408 1410 1412 1413 1416 1418 1421 1424 1427 1430 1433 1435
1435 1435 1434 1433 1432 1431 1430 1429 1428 1426 1424 1423 1421 1419 1417 1415 1414 1412 1411 1409 1407 1405 1403 1401 1399 1397 1395 1393 1392 1390 1388 1385 1383 1380 1378 1377 1376 1375 1374 1373 1372 1372 1372 1373 1373 1374 1374 1374 1375 1375 1376 1377 1377 1377 1377 1375 1374 1374 1375 1377 1379 1381 1383 1386 1388 1388 1389 1391 1394 1397 1400 1403 1405 1408 1410 1412 1413 1415 1417 1420 1423 1426 1429 1432 1434 1437
1436 1435 1435 1434 1433 1432 1431 1430 1428 1427 1425 1424 1422 1420 1418 1417 1415 1414 1413 1411 1409 1407 1405 1403 1402 1400 1398 1396 1394 1393 1390 1388 1386 1383 1381 1380 1379 1378 1377 1375 1374 1373 1373 1374 1375 1375 1376 1377 1378 1378 1379 1380 1380 1380 1379 1378 1378 1378 1378 1380 1382 1383 1385 1388 1390 1391 1393 1396 1398 1401 1403 1406 1408 1410 1412 1413 1415 1417 1419 1422 1425 1428 1431 1433 1436 1439
1436 1436 1435 1434 1433 1432 1431 1430 1429 1428 1426 1425 1423 1422 1420 1418 1417 1416 1414 1412 1411 1409 1408 1406 1404 1403 1401 1399 1398 1396 1394 1392 1389 1387 1385 1384 1383 1381 1380 1378 1377 1376 1376 1376 1376 1377 1377 1378 1380 1381 1382 1383 1383 1383 1383 1383 1382 1382 1383 1384 1386 1388 1389 1391 1393 1395 1397 1399 1402 1404 1406 1408 1410 1412 1414 1416 1417 1419 1422 1424 1427 1430 1433 1435 1438 1441
1437 1436 1436 1435 1434 1433 1432 1431 1430 1429 1428 1426 1425 1423 1421 1419 1418 1417 1415 1414 1412 1411 1410 1408 1407 1405 1404 1402 1401 1399 1398 1396 1394 1392 1390 1388 1388 1386 1384 1382 1381 1379 1378 1378 1379 1379 1379 1380 1381 1383 1384 1385 1386 1387 1387 1387 1387 1387 1388 1390 1391 1392 1393 1394 1396 1398 1401 1403 1405 1407 1409 1411 1413 1415 1416 1418 1420 1422 1424 1427 1429 1432 1435 1438 1440 1443
1437 1437 1436 1436 1435 1434 1433 1433 1432 1431 1429 1428 1427 1425 1423 1421 1419 1418 1417 1416 1414 1413 1412 1411 1409 1408 1406 1405 1403 1402 1401 1399 1397 1395 1393 1392 1391 1391 1389 1388 1386 1384 1383 1383 1383 1383 1383 1383 1383 1384 1386 1388 1389 1390 1391 1391 1391 1391 1393 1396 1398 1399 1398 1400 1402 1404 1406 1408 1409 1411 1413 1414 1416 1418 1420 1422 1423 1426 1428 1430 1433 1435 1438 1440 1443 1444
1437 1437 1436 1436 1436 1435 1434 1434 1433 1432 1431 1429 1427 1425 1423 1422 1421 1420 1419 1418 1417 1415 1414 1413 1412 1410 1409 1407 1406 1404 1403 1402 1400 1399 1397 1395 1394 1394 1393 1392 1391 1390 1389 1389 1389 1389 1389 1389 1389 1389 1390 1391 1393 1394 1395 1395 1395 1396 1399 1403 1405 1406 1406 1407 1408 1410 1411 1412 1413 1415 1416 1418 1420 1422 1424 1426 1428 1430 1432 1434 1436 1438 1440 1442 1444 1445
1438 1437 1437 1437 1436 1436 1435 1434 1433 1432 1431 1429 1428 1427 1426 1424 1423 1422 1421 1420 1419 1417 1417 1416 1414 1413 1412 1410 1408 1407 1405 1405 1404 1403 1400 1398 1397 1397 1397 1397 1396 1396 1395 1395 1395 1396 1397 1397 1397 1398 1398 1397 1398 1398 1399 1399 1400 1402 1405 1408 1410 1411 1411 1412 1412 1413 1414 1416 1418 1419 1422 1423 1425 1427 1429 1431 1432 1434 1436 1438 1439 1441 1442 1443 1444 1446
1438 1438 1438 1437 1437 1436 1436 1435 1434 1433 1432 1431 1430 1429 1428 1427 1426 1424 1423 1422 1421 1420 1419 1418 1417 1416 1414 1412 1411 1409 1408 1408 1407 1406 1404 1403 1402 1401 1401 1401 1401 1401 1400 1400 1400 1401 1403 1403 1404 1405 1406 1404 1404 1403 1403 1404 1405 1407 1409 1411 1413 1414 1415 1415 1416 1417 1419 1421 1423 1425 1427 1429 1431 1432 1434 1435 1436 1438 1439 1440 1441 1442 1443 1444 1445 1447
1438 1438 1438 1437 1437 1437 1436 1435 1435 1434 1433 1433 1432 1431 1430 1429 1428 1426 1425 1424 1423 1422 1421 1420 1419 1418 1417 1416 1414 1412 1411 1411 1410 1409 1408 1407 1406 1406 1406 1405 1405 1405 1404 1404 1404 1406 1407 1408 1409 1411 1411 1411 1409 1408 1408 1408 1409 1410 1412 1414 1416 1417 1418 1420 1421 1423 1424 1426 1428 1430 1431 1433 1434 1436 1437 1438 1439 1440 1441 1442 1443 1444 1445 1446 1447 1448
1438 1438 1438 1438 1437 1437 1437 1437 1436 1436 1435 1435 1434 1433 1433 1431 1430 1428 1427 1426 1425 1424 1423 1422 1421 1420 1420 1419 1417 1415 1414 1414 1413 1413 1412 1411 1411 1410 1410 1409 1409 1408 1408 1408 1408 1410 1410 1411 1412 1414 1415 1415 1415 1413 1413 1413 1413 1414 1416 1418 1419 1421 1422 1423 1425 1427 1428 1430 1432 1433 1434 1436 1437 1438 1439 1441 1441 1442 1443 1444 1445 1446 1447 1448 1448 1449
1439 1438 1438 1438 1438 1438 1438 1438 1438 1437 1437 1437 1436 1435 1434 1433 1432 1431 1429 1428 1427 1426 1425 1423 1422 1422 1422 1422 1420 1418 1417 1417 1417 1417 1415 1415 1414 1414 1414 1413 1413 1412 1412 1412 1412 1413 1414 1414 1415 1416 1418 1419 1419 1418 1418 1418 1418 1419 1420 1422 1423 1424 1426 1427 1429 1430 1432 1433 1434 1435 1436 1438 1439 1440 1441 1442 1443 1443 1444 1445 1446 1447 1448 1448 1449 1450
1439 1439 1438 1438 1438 1439 1439 1439 1438 1438 1438 1438 1437 1437 1436 1435 1434 1433 1432 1430 1429 1428 1427 1425 1424 1424 1424 1424 1424 1422 1421 1420 1420 1420 1419 1418 1418 1418 1418 1418 1417 1416 1416 1416 1416 1416 1417 1418 1418 1420 1421 1422 1423 1423 1423 1423 1424 1424 1425 1426 1427 1428 1429 1430 1432 1433 1434 1435 1437 1438 1438 1439 1440 1441 1442 1443 1444 1445 1445 1446 1446 1447 1448 1448 1449 1450
1440 1439 1439 1439 1439 1439 1439 1439 1439 1439 1439 1439 1438 1438 1437 1437 1436 1435 1433 1432 1431 1430 1429 1428 1427 1427 1427 1428 1427 1426 1424 1423 1423 1423 1422 1422 1422 1422 1422 1422 1421 1420 1420 1420 1420 1420 1420 1421 1422 1423 1425 1425 1426 1426 1427 1427 1428 1428 1428 1429 1430 1431 1432 1433 1434 1435 1437 1438 1438 1439 1440 1441 1442 1442 1443 1444 1445 1446 1446 1447 1448 1448 1449 1449 1450 1450
1440 1440 1440 1440 1440 1440 1440 1440 1440 1440 1440 1440 1440 1439 1439 1438 1437 1436 1435 1434 1433 1433 1432 1430 1430 1430 1430 1430 1430 1429 1427 1426 1426 1425 1425 1425 1425 1425 1425 1425 1425 1424 1424 1424 1424 1424 1424 1425 1426 1427 1428 1429 1430 1430 1430 1430 1431 1431 1432 1432 1433 1434 1435 1436 1437 1438 1438 1439 1440 1441 1442 1442 1443 1443 1444 1445 1446 1446 1447 1448 1448 1449 1449 1450 1450 1451
1441 1441 1441 1441 1441 1441 1441 1441 1441 1441 1441 1441 1441 1440 1440 1439 1438 1438 1437 1436 1436 1435 1434 1433 1433 1433 1433 1433 1433 1432 1430 1429 1428 1428 1427 1427 1428 1428 1428 1428 1428 1428 1427 1428 1428 1428 1428 1428 1428 1429 1431 1432 1433 1433 1433 1434 1434 1435 1435 1435 1436 1437 1438 1438 1439 1439 1440 1441 1442 1442 1443 1443 1444 1445 1445 1446 1447 1447 1448 1448 1449 1449 1450 1450 1451 1451
1442 1442 1442 1442 1442 1442 1442 1442 1442 1442 1442 1442 1442 1441 1441 1441 1440 1439 1439 1438 1438 1437 1436 1435 1435 1436 1435 1435 1435 1434 1433 1432 1431 1430 1430 1429 1430 1431 1431 1431 1431 1431 1430 1431 1431 1432 1432 1431 1431 1432 1433 1434 1435 1435 1436 1436 1437 1438 1438 1438 1438 1439 1439 1440 1441 1441 1442 1443 1443 1444 1444 1445 1446 1447 1447 1448 1448 1448 1449 1449 1450 1450 1450 1451 1451 1452
1443 1443 1443 1443 1443 1443 1443 1443 1443 1443 1443 1443 1443 1442 1442 1442 1441 1441 1440 1440 1439 1438 1438 1438 1438 1438 1438 1438 1437 1437 1436 1435 1434 1433 1432 1432 1433 1434 1434 1434 1434 1433 1433 1434 1434 1435 1434 1434 1434 1434 1435 1436 1437 1437 1438 1438 1438 1439 1440 1440 1441 1441 1442 1442 1443 1443 1444 1444 1445 1446 1446 1447 1448 1448 1449 1449 1449 1450 1450 1450 1451 1451 1451 1452 1452 1452
1444 1444 1444 1444 1444 1444 1444 1444 1444 1444 1444 1444 1444 1443 1443 1443 1443 1442 1442 1442 1441 1440 1440 1440 1440 1440 1439 1439 1439 1439 1438 1438 1437 1436 1434 1434 1435 1437 1437 1436 1436 1435 1436 1436 1437 1437 1437 1437 1437 1437 1437 1438 1438 1439 1440 1440 1440 1441 1441 1442 1442 1443 1443 1444 1444 1445 1446 1446 1447 1447 1448 1448 1449 1449 1450 1450 1450 1451 1451 1451 1452 1452 1452 1452 1452 1453
1445 1445 1445 1445 1445 1445 1445 1445 1445 1445 1445 1445 1445 1445 1444 1444 1444 1443 1443 1443 1443 1442 1442 1442 1441 1441 1441 1441 1441 1440 1440 1440 1440 1438 1437 1437 1438 1439 1439 1438 1438 1438 1438 1439 1439 1439 1439 1439 1439 1439 1439 1439 1440 1441 1441 1442 1442 1443 1443 1443 1444 1444 1445 1445 1446 1446 1447 1447 1448 1448 1448 1449 1449 1450 1450 1451 1451 1452 1452 1452 1452 1452 1453 1453 1453 1453
1446 1446 1446 1446 1446 1446 1446 1445 1445 1445 1446 1446 1446 1446 1446 1446 1445 1445 1444 1444 1444 1444 1444 1443 1442 1442 1443 1443 1442 1442 1443 1442 1442 1441 1440 1439 1440 1440 1441 1441 1440 1440 1441 1441 1441 1441 1441 1441 1441 1441 1441 1441 1442 1442 1443 1443 1443 1444 1444 1445 1445 1446 1446 1447 1447 1447 1448 1448 1449 1449 1449 1450 1450 1451 1451 1452 1452 1452 1453 1453 1453 1453 1453 1453 1453 1453
1447 1447 1447 1447 1447 1447 1447 1446 1446 1446 1447 1447 1448 1448 1447 1447 1447 1446 1446 1445 1446 1446 1445 1444 1443 1444 1444 1444 1444 1444 1444 1444 1444 1443 1443 1442 1442 1442 1443 1443 1443 1443 1443 1443 1443 1443 1443 1443 1443 1443 1443 1443 1444 1444 1444 1445 1445 1445 1446 1446 1447 1447 1448 1448 1448 1449 1449 1449 1450 1450 1451 1451 1452 1452 1452 1453 1453 1453 1454 1454 1454 1454 1454 1454 1454 1454
1448 1448 1448 1448 1448 1448 1448 1447 1447 1447 1448 1448 1448 1448 1449 1449 1449 1448 1447 1447 1447 1447 1447 1445 1445 1445 1445 1445 1446 1446 1447 1446 1446 1446 1445 1445 1444 1444 1445 1445 1445 1445 1444 1445 1445 1445 1445 1445 1445 1445 1445 1446 1446 1446 1447 1447 1447 1447 1448 1448 1448 1449 1449 1449 1450 1450 1451 1451 1451 1452 1452 1453 1453 1453 1454 1454 1454 1455 1455 1455 1455 1455 1455 1455 1455 1455
1449 1449 1449 1449 1448 1448 1448 1448 1448 1448 1448 1449 1449 1450 1451 1451 1450 1449 1448 1448 1448 1448 1448 1447 1446 1446 1446 1447 1447 1448 1448 1448 1448 1448 1448 1447 1447 1447 1447 1447 1447 1446 1446 1447 1447 1447 1447 1447 1447 1447 1448 1448 1448 1448 1449 1449 1449 1449 1449 1450 1450 1450 1451 1451 1452 1452 1452 1453 1453 1453 1453 1454 1454 1455 1455 1455 1456 1456 1456 1456 1456 1456 1456 1456 1456 1456
1450 1450 1449 1449 1449 1449 1449 1449 1449 1449 1449 1450 1451 1452 1452 1452 1452 1450 1450 1450 1450 1450 1449 1448 1448 1448 1448 1448 1448 1448 1449 1449 1450 1450 1449 1449 1449 1449 1449 1449 1448 1448 1448 1448 1448 1448 1448 1449 1449 1449 1450 1450 1450 1450 1451 1451 1451 1451 1452 1452 1452 1452 1453 1453 1453 1453 1454 1454 1454 1455 1455 1455 1456 1456 1457 1457 1457 1457 1457 1457 1457 1457 1457 1457 1457 1457
1450 1450 1450 1450 1450 1450 1450 1450 1450 1451 1451 1452 1452 1453 1453 1453 1452 1451 1451 1451 1451 1451 1450 1449 1449 1449 1449 1449 1449 1449 1450 1451 1451 1451 1451 1451 1451 1451 1451 1451 1451 1450 1450 1449 1449 1450 1451 1451 1452 1452 1452 1452 1452 1452 1453 1453 1453 1453 1453 1453 1454 1454 1454 1454 1455 1455 1455 1456 1456 1456 1457 1457 1457 1458 1458 1458 1458 1458 1458 1458 1458 1458 1458 1458 1457 1457
1451 1451 1451 1451 1451 1451 1451 1451 1452 1452 1452 1453 1453 1453 1453 1453 1453 1453 1453 1452 1452 1452 1451 1451 1451 1451 1451 1450 1449 1449 1451 1452 1452 1452 1452 1452 1452 1452 1452 1452 1452 1452 1452 1451 1451 1451 1452 1453 1453 1453 1453 1453 1453 1453 1454 1454 1454 1455 1455 1455 1455 1455 1456 1456 1456 1457 1457 1457 1457 1458 1458 1458 1458 1458 1458 1459 1459 1459 1459 1459 1458 1458 1458 1458 1458 1458
1452 1452 1452 1452 1452 1452 1452 1453 1453 1453 1453 1453 1453 1453 1453 1453 1453 1453 1453 1453 1453 1453 1453 1452 1452 1452 1452 1451 1451 1451 1452 1453 1453 1453 1453 1453 1453 1453 1453 1453 1453 1453 1453 1453 1453 1452 1453 1453 1454 1454 1455 1455 1455 1455 1455 1456 1456 1456 1457 1457 1457 1457 1457 1457 1458 1458 1458 1458 1458 1458 1459 1459 1459 1459 1459 1459 1459 1459 1459 1459 1459 1459 1459 1459 1458 1458
1453 1453 1453 1453 1453 1453 1453 1453 1454 1454 1454 1454 1454 1454 1454 1454 1454 1454 1454 1454 1454 1454 1454 1453 1453 1453 1453 1452 1452 1452 1453 1453 1454 1454 1454 1454 1454 1454 1454 1454 1454 1454 1454 1454 1454 1454 1454 1454 1455 1455 1456 1456 1456 1456 1457 1457 1457 1458 1458 1458 1458 1458 1458 1458 1458 1458 1459 1459 1459 1459 1459 1459 1459 1459 1459 1459 1460 1460 1460 1460 1459 1459 1459 1459 1459 1458
1453 1453 1453 1453 1454 1454 1454 1454 1454 1455 1455 1455 1454 1454 1455 1455 1455 1455 1455 1455 1455 1455 1454 1454 1454 1454 1454 1453 1453 1453 1453 1454 1454 1454 1455 1455 1455 1455 1455 1455 1456 1456 1456 1456 1455 1455 1455 1456 1456 1456 1457 1457 1457 1458 1458 1458 1458 1458 1459 1459 1459 1459 1459 1459 1459 1459 1459 1460 1460 1460 1460 1460 1460 1460 1460 1460 1460 1460 1460 1460 1460 1460 1460 1460 1459 1459
1453 1454 1454 1454 1454 1455 1455 1455 1455 1455 1455 1455 1455 1455 1455 1455 1455 1455 1455 1455 1455 1455 1455 1455 1455 1455 1455 1454 1454 1454 1454 1454 1455 1455 1455 1456 1456 1456 1456 1456 1456 1457 1457 1457 1457 1457 1457 1457 1457 1457 1458 1458 1458 1458 1459 1459 1459 1459 1460 1460 1460 1460 1460 1460 1460 1460 1460 1460 1460 1460 1460 1460 1460 1461 1461 1461 1461 1461 1461 1461 1460 1460 1460 1460 1460 1460
1454 1454 1455 1455 1455 1456 1456 1456 1456 1456 1456 1456 1456 1456 1456 1456 1456 1456 1456 1456 1456 1456 1456 1456 1456 1456 1456 1456 1455 1455 1455 1455 1455 1456 1456 1457 1457 1457 1457 1457 1457 1457 1458 1458 1458 1458 1458 1458 1458 1458 1458 1458 1458 1459 1459 1460 1460 1460 1460 1460 1460 1460 1460 1460 1461 1461 1461 1461 1461 1461 1461 1461 1461 1461 1461 1461 1461 1461 1461 1461 1461 1461 1461 1461 1460 1460
1454 1455 1455 1455 1456 1456 1456 1457 1457 1457 1457 1457 1457 1457 1457 1457 1457 1457 1456 1457 1457 1457 1457 1457 1457 1457 1457 1457 1456 1456 1456 1456 1456 1457 1457 1457 1458 1458 1458 1458 1458 1458 1458 1458 1458 1458 1458 1458 1458 1459 1459 1459 1459 1459 1460 1460 1461 1461 1461 1461 1461 1461 1461 1461 1461 1461 1461 1462 1462 1462 1462 1461 1461 1461 1461 1461 1462 1462 1462 1461 1461 1461 1461 1461 1461 1461
1455 1455 1456 1456 1456 1457 1457 1457 1457 1457 1457 1457 1458 1458 1458 1458 1458 1457 1457 1457 1457 1458 1458 1458 1458 1458 1458 1458 1457 1457 1457 1457 1457 1458 1458 1458 1458 1458 1458 1458 1458 1458 1458 1458 1459 1459 1459 1459 1459 1459 1459 1459 1460 1460 1461 1461 1461 1461 1461 1462 1462 1462 1462 1462 1462 1462 1462 1462 1462 1462 1462 1462 1462 1462 1462 1462 1462 1462 1462 1462 1462 1461 1461 1461 1461 1461
1455 1456 1456 1456 1457 1457 1457 1458 1458 1458 1458 1458 1458 1458 1458 1458 1458 1458 1458 1458 1458 1458 1458 1458 1458 1458 1458 1458 1458 1458 1458 1458 1458 1458 1458 1458 1459 1459 1459 1459 1459 1459 1459 1459 1459 1459 1460 1460 1460 1460 1460 1460 1460 1461 1461 1461 1462 1462 1462 1462 1462 1462 1462 1462 1462 1462 1462 1462 1462 1462 1462 1462 1462 1462 1462 1462 1462 1462 1462 1462 1462 1462 1462 1462 1462 1461
1456 1456 1456 1457 1457 1457 1458 1458 1458 1458 1458 1458 1458 1459 1459 1459 1459 1459 1459 1459 1459 1459 1459 1459 1459 1459 1459 1459 1459 1459 1459 1459 1459 1459 1459 1459 1459 1460 1460 1460 1459 1459 1459 1460 1460 1460 1460 1460 1460 1460 1460 1461 1461 1461 1461 1462 1462 1462 1463 1463 1463 1463 1463 1463 1463 1463 1463 1463 1463 1463 1463 1463 1463 1463 1463 1463 1463 1463 1463 1463 1462 1462 1462 1462 1462 1462
1456 1456 1457 1457 1457 1458 1458 1458 1458 1458 1458 1459 1459 1459 1459 1459 1459 1460 1460 1459 1459 1459 1459 1460 1460 1460 1460 1460 1460 1460 1460 1460 1460 1460 1460 1460 1460 1460 1460 1460 1460 1460 1460 1460 1460 1460 1460 1461 1461 1461 1461 1461 1461 1461 1462 1462 1462 1462 1463 1463 1463 1463 1463 1463 1463 1463 1463 1463 1463 1463 1463 1463 1463 1463 1463 1463 1463 1463 1463 1463 1463 1463 1463 1463 1463 1463
1456 1457 1457 1457 1458 1458 1458 1458 1458 1459 1459 1459 1459 1459 1459 1460 1460 1460 1460 1460 1460 1460 1460 1460 1461 1461 1461 1461 1461 1461 1461 1461 1461 1461 1461 1461 1461 1461 1461 1461 1461 1461 1461 1461 1461 1461 1461 1461 1461 1461 1461 1461 1462 1462 1462 1462 1462 1463 1463 1463 1463 1463 1463 1463 1463 1463 1463 1463 1463 1463 1463 1463 1463 1463 1463 1463 1463 1463 1463 1463 1463 1463 1463 1463 1463 1463
1456 1457 1457 1457 1458 1458 1458 1458 1459 1459 1459 1459 1460 1460 1460 1460 1460 1461 1461 1461 1461 1461 1461 1461 1461 1462 1462 1461 1461 1461 1461 1461 1461 1461 1461 1461 1461 1461 1461 1462 1462 1462 1462 1462 1462 1462 1462 1462 1462 1462 1462 1462 1462 1462 1462 1463 1463 1463 1463 1463 1463 1463 1463 1463 1464 1464 1464 1464 1463 1463 1463 1463 1463 1463 1463 1463 1463 1463 1463 1463 1463 1463 1463 1463 1463 1463
1457 1457 1457 1458 1458 1458 1458 1458 1459 1459 1459 1460 1460 1460 1460 1460 1461 1461 1461 1461 1461 1461 1461 1461 1462 1462 1462 1462 1462 1462 1462 1462 1462 1462 1462 1462 1462 1462 1462 1462 1462 1462 1462 1462 1462 1462 1462 1462 1462 1462 1462 1463 1463 1463 1463 1463 1463 1463 1463 1463 1464 1464 1464 1464 1464 1464 1464 1464 1464 1464 1464 1464 1464 1464 1464 1464 1463 1464 1464 1464 1463 1463 1463 1463 1463 1463
1457 1457 1457 1458 1458 1458 1458 1458 1459 1459 1460 1460 1460 1460 1461 1461 1461 1461 1462 1462 1462 1462 1462 1462 1463 1463 1463 1463 1463 1463 1463 1463 1463 1463 1463 1463 1463 1463 1463 1463 1463 1463 1463 1463 1463 1463 1463 1463 1463 1463 1463 1463 1463 1463 1463 1463 1464 1464 1464 1464 1464 1464 1464 1464 1464 1464 1464 1464 1464 1464 1464 1464 1464 1464 1464 1464 1464 1464 1464 1464 1464 1464 1464 1464 1464 1464
1457 1457 1458 1458 1458 1458 1458 1458 1459 1459 1460 1460 1461 1461 1461 1461 1461 1462 1462 1462 1462 1462 1462 1463 1463 1463 1463 1463 1463 1463 1463 1463 1463 1463 1463 1463 1463 1463 1463 1463 1463 1463 1463 1463 1463 1463 1463 1463 1463 1463 1463 1464 1464 1464 1464 1464 1464 1464 1464 1465 1465 1465 1465 1465 1465 1465 1465 1465 1465 1465 1464 1465 1464 1464 1464 1464 1464 1464 1464 1464 1464 1464 1464 1464 1464 1464
1457 1458 1458 1458 1458 1458 1458 1459 1459 1460 1460 1460 1461 1461 1461 1461 1462 1462 1462 1463 1463 1463 1463 1463 1463 1463 1463 1463 1463 1463 1464 1463 1463 1463 1463 1463 1463 1463 1464 1464 1464 1464 1464 1464 1464 1464 1464 1464 1464 1464 1464 1464 1464 1465 1465 1465 1465 1465 1465 1465 1465 1465 1466 1466 1466 1465 1465 1465 1465 1465 1465 1465 1465 1465 1464 1465 1465 1465 1465 1465 1465 1465 1465 1464 1464 1464
1457 1458 1458 1458 1458 1458 1458 1459 1459 1460 1460 1461 1461 1461 1461 1462 1462 1462 1463 1463 1463 1463 1463 1463 1464 1464 1464 1464 1464 1464 1464 1464 1464 1464 1464 1464 1464 1464 1464 1464 1464 1464 1464 1464 1464 1464 1464 1464 1465 1465 1465 1465 1465 1465 1465 1465 1466 1466 1466 1466 1466 1466 1466 1466 1466 1466 1466 1466 1466 1466 1466 1465 1465 1465 1465 1465 1465 1465 1466 1465 1465 1465 1465 1465 1465 1465
1457 1457 1458 1458 1458 1458 1459 1459 1460 1460 1461 1461 1461 1462 1462 1462 1462 1463 1463 1463 1463 1463 1463 1464 1464 1464 1464 1464 1464 1464 1464 1464 1464 1464 1464 1464 1464 1464 1465 1465 1465 1465 1465 1465 1465 1465 1465 1465 1465 1465 1465 1466 1466 1466 1466 1466 1466 1466 1466 1466 1467 1467 1467 1467 1467 1467 1467 1466 1466 1466 1466 1466 1466 1466 1466 1466 1466 1466 1466 1466 1466 1465 1465 1465 1465 1465
1457 1457 1458 1458 1458 1459 1459 1460 1460 1461 1461 1462 1462 1462 1462 1463 1463 1463 1463 1463 1463 1464 1464 1464 1464 1464 1464 1464 1464 1464 1465 1465 1465 1465 1465 1465 1465 1465 1465 1465 1465 1465 1465 1465 1465 1465 1465 1465 1465 1465 1466 1466 1466 1466 1466 1467 1467 1467 1467 1467 1467 1467 1467 1467 1467 1467 1467 1467 1467 1467 1467 1467 1467 1467 1467 1467 1467 1467 1467 1467 1466 1466 1466 1465 1465 1465